CW8374 Weather Reports


time (UTC)temp
F
wind
direction
speed
knots
gust
knots
rain 1hr
in
rain 24hr
in
rain mn
in
humidity
%
barometer
mb
20260505211404 48 49 1.7 8.7 0.00 0.00 0.00 3 1012.2
20260505210404 48 42 0.9 8.7 0.00 0.00 0.00 3 1012.1
20260505204903 48 43 0.9 6.1 0.00 0.00 0.00 3 1011.9
20260505204403 48 57 1.7 6.1 0.00 0.00 0.00 3 1011.9
20260505203903 48 45 1.7 6.1 0.00 0.00 0.00 3 1011.8
20260505203404 48 53 1.7 10.4 0.00 0.00 0.00 3 1011.8
20260505201904 50 69 0.9 5.2 0.00 0.00 0.00 3 1011.7
20260505201403 50 57 1.7 8.7 0.00 0.00 0.00 3 1011.7
20260505200404 50 347 1.7 8.7 0.00 0.00 0.00 3 1011.5
20260505194903 50 306 0.0 2.6 0.00 0.00 0.00 3 1011.5
20260505193904 50 295 0.9 4.3 0.00 0.00 0.00 3 1011.3
20260505191404 52 333 1.7 8.7 0.00 0.00 0.00 3 1011.2
20260505190904 52 312 0.9 6.1 0.00 0.00 0.00 3 1011.2
20260505190403 52 303 5.2 10.4 0.00 0.00 0.00 3 1011.2
20260505184404 52 339 2.6 7.8 0.00 0.00 0.00 5 1011.2
20260505183903 52 315 1.7 5.2 0.00 0.00 0.00 5 1011.2
20260505183405 52 316 0.9 10.4 0.00 0.00 0.00 8 1011.2
20260505181404 52 343 2.6 8.7 0.00 0.00 0.00 9 1011.3
20260505180404 52 307 2.6 10.4 0.00 0.00 0.00 10 1011.2
20260505174403 52 280 0.9 8.7 0.00 0.00 0.00 13 1011.2
20260505171405 54 305 5.2 11.3 0.00 0.00 0.00 17 1011.3
20260505170403 54 315 0.9 10.4 0.00 0.00 0.00 13 1011.3
20260505163903 54 280 5.2 11.3 0.00 0.00 0.00 12 1011.2
20260505163404 54 327 2.6 12.2 0.00 0.00 0.00 10 1011.2
20260505150904 52 279 2.6 10.4 0.00 0.00 0.00 27 1011.3
20260505150404 52 303 4.3 11.3 0.00 0.00 0.00 28 1011.4
20260505124904 52 292 4.3 12.2 0.00 0.00 0.00 3 1011.6
20260505123904 52 302 4.3 10.4 0.00 0.00 0.00 3 1011.7
20260505121905 52 309 4.3 13.0 0.00 0.00 0.00 3 1011.6
20260505114905 52 290 5.2 10.4 0.00 0.00 0.00 3 1011.7
20260505114404 52 313 6.1 12.2 0.00 0.00 0.00 3 1011.7
20260505113903 52 294 1.7 10.4 0.00 0.00 0.00 3 1011.7
20260505113404 52 288 3.5 10.4 0.00 0.00 0.00 3 1011.8
20260505111904 50 285 2.6 10.4 0.00 0.00 0.00 3 1012.1
20260505110903 50 310 7.0 11.3 0.00 0.00 0.00 3 1012.0
20260505110405 50 297 5.2 17.4 0.00 0.00 0.00 3 1012.0
20260505101903 50 294 5.2 11.3 0.00 0.00 0.00 3 1011.9
20260505100903 50 291 8.7 14.8 0.00 0.00 0.00 3 1011.8
20260505094903 50 319 1.7 8.7 0.00 0.00 0.00 3 1011.7
20260505093903 50 311 4.3 11.3 0.00 0.00 0.00 3 1011.8
20260505091904 50 299 1.7 8.7 0.00 0.00 0.00 3 1011.8
20260505084404 50 296 2.6 8.7 0.00 0.00 0.00 3 1011.9
20260505083904 50 303 0.0 5.2 0.00 0.00 0.00 3 1011.9
20260505083404 50 313 1.7 10.4 0.00 0.00 0.00 3 1012.0
20260505081904 50 333 1.7 4.3 0.00 0.00 0.00 3 1011.9
20260505080404 50 330 1.7 6.1 0.00 0.00 0.00 3 1011.8
20260505073404 50 293 0.9 2.6 0.00 0.00 0.00 3 1011.8
20260505063903 48 306 0.0 0.0 0.00 0.00 0.00 3 1012.0
20260505063404 48 321 0.0 0.0 0.00 0.00 0.00 3 1012.0
20260505061903 48 309 0.0 0.0 0.00 0.00 0.00 3 1012.1
20260505060903 48 266 0.0 0.0 0.00 0.00 0.00 3 1011.9
20260505054404 46 266 0.0 0.0 0.00 0.00 0.00 3 1011.8
20260505051404 45 266 0.0 0.0 0.00 0.00 0.00 3 1011.7
20260505050904 45 266 0.0 0.0 0.00 0.00 0.00 3 1011.7
20260505050404 45 267 0.0 0.0 0.00 0.00 0.00 3 1011.7
20260505040404 45 271 0.0 0.9 0.00 0.00 0.00 3 1011.5
20260505034403 45 264 0.0 0.9 0.00 0.00 0.00 3 1011.5
20260505033404 45 286 0.0 0.0 0.00 0.00 0.00 3 1011.6
20260505031905 45 275 0.0 0.9 0.00 0.00 0.00 3 1011.7
20260505030905 45 274 0.0 0.9 0.00 0.00 0.00 3 1011.7
20260505024404 46 275 0.0 0.9 0.00 0.00 0.00 3 1011.7
20260505023904 46 268 0.0 0.9 0.00 0.00 0.00 3 1011.7
20260505023403 46 260 0.0 0.9 0.00 0.00 0.00 3 1011.7
20260505020404 46 240 0.0 1.7 0.00 0.00 0.00 3 1011.9
20260505013903 45 260 0.0 2.6 0.00 0.00 0.00 3 1012.2
20260505013403 45 269 0.0 2.6 0.00 0.00 0.00 3 1012.2
20260505011403 46 276 0.0 1.7 0.00 0.00 0.00 3 1012.2
20260505004905 46 277 0.0 1.7 0.00 0.00 0.00 3 1012.2
20260505003905 46 287 0.0 0.9 0.00 0.00 0.00 3 1012.3
20260505000905 45 269 0.0 0.0 0.00 0.00 0.00 3 1012.3
20260505000405 45 271 0.0 0.0 0.00 0.00 0.00 3 1012.4
20260504234404 46 265 0.0 0.0 0.00 0.00 0.00 3 1012.6
20260504233904 46 265 0.0 0.9 0.00 0.00 0.00 3 1012.6
20260504231404 46 297 0.0 0.9 0.00 0.00 0.00 3 1012.6
20260504230403 46 281 0.0 0.9 0.00 0.00 0.00 3 1012.6
20260504224904 48 287 0.0 0.9 0.00 0.00 0.00 3 1012.5
20260504223904 48 287 0.0 1.7 0.00 0.00 0.00 3 1012.6
20260504223404 48 279 0.0 1.7 0.00 0.00 0.00 3 1012.7
20260504221404 48 268 0.0 0.0 0.00 0.00 0.00 3 1012.8
20260504220404 48 253 0.0 0.9 0.00 0.00 0.00 3 1012.8
20260504214903 48 286 0.0 0.9 0.00 0.00 0.00 3 1012.8
20260504214404 48 278 0.0 0.9 0.00 0.00 0.00 3 1012.9